[Date Prev][Date Next][Thread Prev][Thread Next] - [Date Index][Thread Index][Author Index]
2 Line ISS Keps 10-10
- Subject: [sarex] 2 Line ISS Keps 10-10
- From: "Scott Avery WA6LIE" <wa6lie@xxxxxxx>
- Date: Sun, 10 Oct 2004 03:40:47 -0700
- Seal-Send-Time: Sun, 10 Oct 2004 03:40:47 -0700
ISS
1 25544U 98067A 04284.38377992 .00016092 00000-0 14165-3 0 8768
2 25544 51.6355 97.9144 0009395 208.0238 230.3339 15.68891365336412
----
Via the sarex mailing list at AMSAT.ORG courtesy of AMSAT-NA.
To unsubscribe, send "unsubscribe sarex" to Majordomo@amsat.org
AMSAT Home